Simultaneous Nadir Overpasses (SNOs) Predictions

Prediction of SNOs between GOES-15 and METOP-A Satellite Orbit:

Table of predicted SNOs for the next 14.0 days since TLE Epoch: 10/4/2019
Index Date Time (GOES-15) GOES-15 Lat,Lon METOP-A Lat,Lon Distance(km) Time Diff (sec)
1 10/05/2019 17:41:16 -0.27,-127.73 0.46,-130.93 364.52 80
2 10/06/2019 17:23:18 -0.25,-127.77 -0.67,-125.95 207.67 80
3 10/08/2019 05:42:19 0.27,-127.83 -0.35,-130.58 313.73 80
4 10/09/2019 05:18:59 0.25,-127.86 0.72,-125.59 257.82 80
5 10/10/2019 17:37:54 -0.27,-127.92 0.21,-130.20 259.48 80
6 10/11/2019 17:19:54 -0.26,-127.96 -0.86,-125.21 312.36 80
7 10/13/2019 05:38:56 0.28,-128.01 -0.16,-129.84 208.98 80
8 10/14/2019 05:15:37 0.26,-128.04 0.97,-124.86 362.13 80
9 10/15/2019 17:34:30 -0.28,-128.09 0.02,-129.46 156.35 80
10 10/16/2019 17:16:31 -0.27,-128.12 -1.05,-124.47 414.82 80
11 10/18/2019 05:35:33 0.28,-128.17 0.10,-129.11 107.13 80




NCC Satellite Simultaneous Nadir Overpasses (SNOs) Prediction Service
